Time,TemperatureF,DewpointF,PressureIn,WindDirection,WindDirectionDegrees,WindSpeedMPH,WindSpeedGustMPH,Humidity,HourlyPrecipIn,Conditions,Clouds,dailyrainin,SoftwareType,DateUTC
2013-01-18 00:01:00,16.7,-99.9,30.14,North,8,0.0,0.0,-999,0.00,,,-99.99,perl,2013-01-18 05:01:00,
2013-01-18 00:05:00,16.7,-99.9,30.14,NNE,14,0.6,3.1,-999,0.00,,,-99.99,perl,2013-01-18 05:05:00,
2013-01-18 00:08:00,16.7,-99.9,30.14,NNE,12,0.0,0.0,-999,0.00,,,-99.99,perl,2013-01-18 05:08:00,
2013-01-18 00:12:00,16.7,-99.9,30.14,NNE,12,0.0,0.0,-999,0.00,,,-99.99,perl,2013-01-18 05:12:00,
2013-01-18 00:17:00,16.7,-99.9,30.14,North,10,0.0,0.0,-999,0.00,,,-99.99,perl,2013-01-18 05:17:00,
2013-01-18 00:22:00,16.7,-99.9,30.14,NNE,16,0.0,0.0,-999,0.00,,,-99.99,perl,2013-01-18 05:22:00,
2013-01-18 00:27:00,16.5,-99.9,30.14,NNE,30,0.0,3.6,-999,0.00,,,-99.99,perl,2013-01-18 05:27:00,
2013-01-18 00:32:00,16.3,-99.9,30.14,ENE,60,3.2,3.2,-999,0.00,,,-99.99,perl,2013-01-18 05:32:00,
2013-01-18 00:37:00,16.2,-99.9,30.14,North,353,0.0,0.0,-999,0.00,,,-99.99,perl,2013-01-18 05:37:00,
2013-01-18 00:42:00,16.2,-99.9,30.14,NNE,17,0.0,0.0,-999,0.00,,,-99.99,perl,2013-01-18 05:42:00,
2013-01-18 00:47:00,16.2,-99.9,30.17,South,179,0.0,0.0,-999,0.00,,,-99.99,perl,2013-01-18 05:47:00,
2013-01-18 00:52:00,16.2,-99.9,30.17,SW,223,0.0,0.0,-999,0.00,,,-99.99,perl,2013-01-18 05:52:00,
2013-01-18 00:58:00,16.2,-99.9,30.17,West,269,0.0,0.0,-999,0.00,,,-99.99,perl,2013-01-18 05:58:00,
2013-01-18 01:03:00,16.2,-99.9,30.17,North,10,0.0,0.0,-999,0.00,,,-99.99,perl,2013-01-18 06:03:00,
2013-01-18 01:08:00,16.2,-99.9,30.17,East,90,0.0,0.0,-999,0.00,,,-99.99,perl,2013-01-18 06:08:00,
2013-01-18 01:13:00,16.2,-99.9,30.17,SW,215,0.0,0.0,-999,0.00,,,-99.99,perl,2013-01-18 06:13:00,
2013-01-18 01:19:00,16.2,-99.9,30.17,North,357,0.0,0.0,-999,0.00,,,-99.99,perl,2013-01-18 06:19:00,
2013-01-18 01:24:00,16.2,-99.9,30.17,ENE,72,0.0,0.0,-999,0.00,,,-99.99,perl,2013-01-18 06:24:00,
2013-01-18 01:29:00,16.2,-99.9,30.17,East,90,0.0,0.0,-999,0.00,,,-99.99,perl,2013-01-18 06:29:00,
2013-01-18 01:34:00,16.2,-99.9,30.17,SW,215,0.0,0.0,-999,0.00,,,-99.99,perl,2013-01-18 06:34:00,
2013-01-18 01:39:00,16.2,-99.9,30.17,West,268,0.0,0.0,-999,0.00,,,-99.99,perl,2013-01-18 06:39:00,
2013-01-18 01:44:00,16.2,-99.9,30.20,South,179,0.0,0.0,-999,0.00,,,-99.99,perl,2013-01-18 06:44:00,
2013-01-18 01:49:00,16.2,-99.9,30.20,NNW,342,0.0,0.0,-999,0.00,,,-99.99,perl,2013-01-18 06:49:00,
2013-01-18 01:54:00,16.2,-99.9,30.20,NNW,342,0.0,0.0,-999,0.00,,,-99.99,perl,2013-01-18 06:54:00,
2013-01-18 01:59:00,16.2,-99.9,30.20,NNW,344,0.0,0.0,-999,0.00,,,-99.99,perl,2013-01-18 06:59:00,
2013-01-18 02:04:00,16.3,-99.9,30.20,North,353,0.0,0.0,-999,0.00,,,-99.99,perl,2013-01-18 07:04:00,
2013-01-18 02:09:00,16.3,-99.9,30.20,SE,142,0.0,0.0,-999,0.00,,,-99.99,perl,2013-01-18 07:09:00,
2013-01-18 02:15:00,16.2,-99.9,30.20,North,357,0.0,0.0,-999,0.00,,,-99.99,perl,2013-01-18 07:15:00,
2013-01-18 02:20:00,16.2,-99.9,30.20,ENE,74,0.0,0.0,-999,0.00,,,-99.99,perl,2013-01-18 07:20:00,
2013-01-18 02:25:00,16.2,-99.9,30.20,NNW,345,0.0,0.0,-999,0.00,,,-99.99,perl,2013-01-18 07:25:00,
2013-01-18 02:30:00,16.2,-99.9,30.23,NNW,345,0.0,0.0,-999,0.00,,,-99.99,perl,2013-01-18 07:30:00,
2013-01-18 02:35:00,16.2,-99.9,30.23,NNW,345,0.0,0.0,-999,0.00,,,-99.99,perl,2013-01-18 07:35:00,
2013-01-18 02:40:00,16.2,-99.9,30.23,NNW,346,0.0,0.0,-999,0.00,,,-99.99,perl,2013-01-18 07:40:00,
2013-01-18 02:45:00,16.2,-99.9,30.23,NNW,345,0.0,0.0,-999,0.00,,,-99.99,perl,2013-01-18 07:45:00,
2013-01-18 02:51:00,16.2,-99.9,30.23,NNW,345,0.0,0.0,-999,0.00,,,-99.99,perl,2013-01-18 07:51:00,
2013-01-18 02:56:00,16.2,-99.9,30.23,NNW,345,0.0,0.0,-999,0.00,,,-99.99,perl,2013-01-18 07:56:00,
2013-01-18 03:01:00,16.2,-99.9,30.23,NNW,345,0.0,0.0,-999,0.00,,,-99.99,perl,2013-01-18 08:01:00,
2013-01-18 03:06:00,16.2,-99.9,30.23,NNW,345,0.0,0.0,-999,0.00,,,-99.99,perl,2013-01-18 08:06:00,
2013-01-18 03:12:00,16.0,-99.9,30.23,NNW,346,0.0,0.0,-999,0.00,,,-99.99,perl,2013-01-18 08:12:00,
2013-01-18 03:17:00,16.0,-99.9,30.23,NNW,345,0.0,0.0,-999,0.00,,,-99.99,perl,2013-01-18 08:17:00,
2013-01-18 03:22:00,15.8,-99.9,30.23,NNW,345,0.0,0.0,-999,0.00,,,-99.99,perl,2013-01-18 08:22:00,
2013-01-18 03:27:00,15.8,-99.9,30.23,NNW,345,0.0,0.0,-999,0.00,,,-99.99,perl,2013-01-18 08:27:00,
2013-01-18 03:32:00,15.8,-99.9,30.26,NNW,345,0.0,0.0,-999,0.00,,,-99.99,perl,2013-01-18 08:32:00,
2013-01-18 03:37:00,15.6,-99.9,30.26,NNW,345,0.0,0.0,-999,0.00,,,-99.99,perl,2013-01-18 08:37:00,
2013-01-18 03:42:00,15.6,-99.9,30.26,NNW,345,0.0,0.0,-999,0.00,,,-99.99,perl,2013-01-18 08:42:00,
2013-01-18 03:47:00,15.6,-99.9,30.26,NNW,345,0.0,0.0,-999,0.00,,,-99.99,perl,2013-01-18 08:47:00,
2013-01-18 03:52:00,15.8,-99.9,30.26,NNW,346,0.0,0.0,-999,0.00,,,-99.99,perl,2013-01-18 08:52:00,
2013-01-18 03:57:00,15.8,-99.9,30.26,NNW,346,0.0,0.0,-999,0.00,,,-99.99,perl,2013-01-18 08:57:00,
2013-01-18 04:02:00,15.8,-99.9,30.26,NNW,346,0.0,0.0,-999,0.00,,,-99.99,perl,2013-01-18 09:02:00,
2013-01-18 04:08:00,15.6,-99.9,30.26,NNW,345,0.0,0.0,-999,0.00,,,-99.99,perl,2013-01-18 09:08:00,
2013-01-18 04:14:00,15.4,-99.9,30.26,NNW,345,0.0,0.0,-999,0.00,,,-99.99,perl,2013-01-18 09:14:00,
2013-01-18 04:19:00,15.4,-99.9,30.26,NNW,345,0.0,0.0,-999,0.00,,,-99.99,perl,2013-01-18 09:19:00,
2013-01-18 04:24:00,15.4,-99.9,30.26,NNW,345,0.0,0.0,-999,0.00,,,-99.99,perl,2013-01-18 09:24:00,
2013-01-18 04:30:00,15.3,-99.9,30.26,NW,317,0.0,0.0,-999,0.00,,,-99.99,perl,2013-01-18 09:30:00,
2013-01-18 04:35:00,15.3,-99.9,30.26,NW,316,0.0,0.0,-999,0.00,,,-99.99,perl,2013-01-18 09:35:00,
2013-01-18 04:42:00,15.1,-99.9,30.26,NW,317,0.0,0.0,-999,0.00,,,-99.99,perl,2013-01-18 09:42:00,
2013-01-18 04:48:00,15.1,-99.9,30.29,NW,317,0.0,0.0,-999,0.00,,,-99.99,perl,2013-01-18 09:48:00,
2013-01-18 04:53:00,14.9,-99.9,30.29,West,281,0.0,0.0,-999,0.00,,,-99.99,perl,2013-01-18 09:53:00,
2013-01-18 04:59:00,14.5,-99.9,30.29,West,280,0.0,0.0,-999,0.00,,,-99.99,perl,2013-01-18 09:59:00,
2013-01-18 05:04:00,14.4,-99.9,30.29,West,278,0.0,0.0,-999,0.00,,,-99.99,perl,2013-01-18 10:04:00,
2013-01-18 05:09:00,14.2,-99.9,30.29,West,279,0.0,0.0,-999,0.00,,,-99.99,perl,2013-01-18 10:09:00,
2013-01-18 05:14:00,13.8,-99.9,30.29,West,278,0.0,0.0,-999,0.00,,,-99.99,perl,2013-01-18 10:14:00,
2013-01-18 05:19:00,13.6,-99.9,30.29,West,278,0.0,0.0,-999,0.00,,,-99.99,perl,2013-01-18 10:19:00,
2013-01-18 05:24:00,13.6,-99.9,30.29,West,281,0.0,0.0,-999,0.00,,,-99.99,perl,2013-01-18 10:24:00,
2013-01-18 05:29:00,13.6,-99.9,30.29,West,281,0.0,0.0,-999,0.00,,,-99.99,perl,2013-01-18 10:29:00,
2013-01-18 05:34:00,13.6,-99.9,30.29,West,281,0.0,0.0,-999,0.00,,,-99.99,perl,2013-01-18 10:34:00,
2013-01-18 05:40:00,13.5,-99.9,30.29,West,281,0.0,0.0,-999,0.00,,,-99.99,perl,2013-01-18 10:40:00,
2013-01-18 05:45:00,13.6,-99.9,30.32,West,281,0.0,0.0,-999,0.00,,,-99.99,perl,2013-01-18 10:45:00,
2013-01-18 05:51:00,13.3,-99.9,30.32,West,280,0.0,0.0,-999,0.00,,,-99.99,perl,2013-01-18 10:51:00,
2013-01-18 05:56:00,13.1,-99.9,30.32,West,281,0.0,0.0,-999,0.00,,,-99.99,perl,2013-01-18 10:56:00,
2013-01-18 06:01:00,12.9,-99.9,30.32,West,281,0.0,0.0,-999,0.00,,,-99.99,perl,2013-01-18 11:01:00,
2013-01-18 06:06:00,12.7,-99.9,30.32,West,281,0.0,0.0,-999,0.00,,,-99.99,perl,2013-01-18 11:06:00,
2013-01-18 06:11:00,12.7,-99.9,30.32,West,281,0.0,0.0,-999,0.00,,,-99.99,perl,2013-01-18 11:11:00,
2013-01-18 06:17:00,12.6,-99.9,30.32,West,280,0.0,0.0,-999,0.00,,,-99.99,perl,2013-01-18 11:17:00,
2013-01-18 06:22:00,12.6,-99.9,30.32,WNW,282,0.0,0.0,-999,0.00,,,-99.99,perl,2013-01-18 11:22:00,
2013-01-18 06:27:00,12.4,-99.9,30.32,West,280,0.0,0.0,-999,0.00,,,-99.99,perl,2013-01-18 11:27:00,
2013-01-18 06:32:00,12.2,-99.9,30.32,West,281,0.0,0.0,-999,0.00,,,-99.99,perl,2013-01-18 11:32:00,
2013-01-18 06:37:00,12.2,-99.9,30.32,West,281,0.0,0.0,-999,0.00,,,-99.99,perl,2013-01-18 11:37:00,
2013-01-18 06:42:00,12.2,-99.9,30.32,West,281,0.0,0.0,-999,0.00,,,-99.99,perl,2013-01-18 11:42:00,
2013-01-18 06:47:00,12.2,-99.9,30.32,West,281,0.0,0.0,-999,0.00,,,-99.99,perl,2013-01-18 11:47:00,
2013-01-18 06:52:00,12.2,-99.9,30.32,West,281,0.0,0.0,-999,0.00,,,-99.99,perl,2013-01-18 11:52:00,
2013-01-18 06:57:00,12.2,-99.9,30.32,West,281,0.0,0.0,-999,0.00,,,-99.99,perl,2013-01-18 11:57:00,
2013-01-18 07:02:00,12.4,-99.9,30.32,West,280,0.0,0.0,-999,0.00,,,-99.99,perl,2013-01-18 12:02:00,
2013-01-18 07:07:00,12.6,-99.9,30.32,West,281,0.0,0.0,-999,0.00,,,-99.99,perl,2013-01-18 12:07:00,
2013-01-18 07:12:00,12.6,-99.9,30.32,West,281,0.0,0.0,-999,0.00,,,-99.99,perl,2013-01-18 12:12:00,
2013-01-18 07:17:00,12.9,-99.9,30.35,West,281,0.0,0.0,-999,0.00,,,-99.99,perl,2013-01-18 12:17:00,
2013-01-18 07:23:00,13.3,-99.9,30.35,WSW,250,0.0,0.0,-999,0.00,,,-99.99,perl,2013-01-18 12:23:00,
2013-01-18 07:28:00,13.3,-99.9,30.35,WSW,252,0.0,0.0,-999,0.00,,,-99.99,perl,2013-01-18 12:28:00,
2013-01-18 07:33:00,13.3,-99.9,30.35,WSW,248,0.0,0.0,-999,0.00,,,-99.99,perl,2013-01-18 12:33:00,
2013-01-18 07:38:00,13.5,-99.9,30.35,SSW,204,0.0,2.7,-999,0.00,,,-99.99,perl,2013-01-18 12:38:00,
2013-01-18 07:43:00,13.6,-99.9,30.35,SW,221,0.0,0.0,-999,0.00,,,-99.99,perl,2013-01-18 12:43:00,
2013-01-18 07:48:00,13.8,-99.9,30.35,SW,228,0.0,0.0,-999,0.00,,,-99.99,perl,2013-01-18 12:48:00,
2013-01-18 07:54:00,14.0,-99.9,30.35,SW,235,0.0,0.0,-999,0.00,,,-99.99,perl,2013-01-18 12:54:00,
2013-01-18 08:00:00,14.2,-99.9,30.35,SW,224,0.0,0.0,-999,0.00,,,-99.99,perl,2013-01-18 13:00:00,
2013-01-18 08:05:00,14.4,-99.9,30.35,SSW,211,0.0,0.0,-999,0.00,,,-99.99,perl,2013-01-18 13:05:00,
2013-01-18 08:10:00,14.4,-99.9,30.35,SSW,212,0.0,0.0,-999,0.00,,,-99.99,perl,2013-01-18 13:10:00,
2013-01-18 08:15:00,14.4,-99.9,30.35,SW,236,0.0,0.0,-999,0.00,,,-99.99,perl,2013-01-18 13:15:00,
2013-01-18 08:20:00,14.4,-99.9,30.35,WSW,256,0.0,0.0,-999,0.00,,,-99.99,perl,2013-01-18 13:20:00,
2013-01-18 08:25:00,14.7,-99.9,30.35,SW,225,0.6,2.7,-999,0.00,,,-99.99,perl,2013-01-18 13:25:00,
2013-01-18 08:30:00,15.1,-99.9,30.38,WSW,255,2.9,2.9,-999,0.00,,,-99.99,perl,2013-01-18 13:30:00,
2013-01-18 08:35:00,15.3,-99.9,30.38,WSW,246,2.2,5.4,-999,0.00,,,-99.99,perl,2013-01-18 13:35:00,
2013-01-18 08:40:00,15.4,-99.9,30.38,SW,232,3.7,3.7,-999,0.00,,,-99.99,perl,2013-01-18 13:40:00,
2013-01-18 08:45:00,15.8,-99.9,30.38,SW,230,3.6,4.9,-999,0.00,,,-99.99,perl,2013-01-18 13:45:00,
2013-01-18 08:50:00,16.0,-99.9,30.38,WSW,239,3.4,3.6,-999,0.00,,,-99.99,perl,2013-01-18 13:50:00,
2013-01-18 08:55:00,16.2,-99.9,30.38,WSW,256,2.8,4.0,-999,0.00,,,-99.99,perl,2013-01-18 13:55:00,
2013-01-18 09:00:00,16.3,-99.9,30.38,WSW,240,2.4,3.6,-999,0.00,,,-99.99,perl,2013-01-18 14:00:00,
2013-01-18 09:06:00,16.7,-99.9,30.38,WSW,248,3.0,3.6,-999,0.00,,,-99.99,perl,2013-01-18 14:06:00,
2013-01-18 09:11:00,16.9,-99.9,30.38,SW,225,0.0,0.0,-999,0.00,,,-99.99,perl,2013-01-18 14:11:00,
2013-01-18 09:16:00,17.1,-99.9,30.38,SSW,208,1.4,5.4,-999,0.00,,,-99.99,perl,2013-01-18 14:16:00,
2013-01-18 09:21:00,17.1,-99.9,30.38,WSW,252,4.0,4.0,-999,0.00,,,-99.99,perl,2013-01-18 14:21:00,
2013-01-18 09:26:00,17.4,-99.9,30.38,West,272,3.9,4.0,-999,0.00,,,-99.99,perl,2013-01-18 14:26:00,
2013-01-18 09:31:00,17.6,-99.9,30.38,WSW,249,4.8,4.8,-999,0.00,,,-99.99,perl,2013-01-18 14:31:00,
2013-01-18 09:36:00,17.6,-99.9,30.38,WSW,242,5.0,5.8,-999,0.00,,,-99.99,perl,2013-01-18 14:36:00,
2013-01-18 09:43:00,17.6,-99.9,30.38,West,273,6.8,10.5,-999,0.00,,,-99.99,perl,2013-01-18 14:43:00,
2013-01-18 09:49:00,17.8,-99.9,30.41,WSW,243,6.0,8.3,-999,0.00,,,-99.99,perl,2013-01-18 14:49:00,
2013-01-18 09:54:00,18.0,-99.9,30.41,SW,225,4.4,10.1,-999,0.00,,,-99.99,perl,2013-01-18 14:54:00,
2013-01-18 09:59:00,18.1,-99.9,30.41,West,267,7.3,8.7,-999,0.00,,,-99.99,perl,2013-01-18 14:59:00,
2013-01-18 10:04:00,18.5,-99.9,30.41,SW,230,4.6,6.3,-999,0.00,,,-99.99,perl,2013-01-18 15:04:00,
2013-01-18 10:09:00,18.7,-99.9,30.41,West,264,5.3,5.8,-999,0.00,,,-99.99,perl,2013-01-18 15:09:00,
2013-01-18 10:14:00,19.0,-99.9,30.41,WSW,239,4.5,6.3,-999,0.00,,,-99.99,perl,2013-01-18 15:14:00,
2013-01-18 10:20:00,19.4,-99.9,30.41,SW,224,4.6,7.6,-999,0.00,,,-99.99,perl,2013-01-18 15:20:00,
2013-01-18 10:25:00,19.6,-99.9,30.41,WSW,258,6.0,6.0,-999,0.00,,,-99.99,perl,2013-01-18 15:25:00,
2013-01-18 10:30:00,19.8,-99.9,30.41,West,265,6.3,8.1,-999,0.00,,,-99.99,perl,2013-01-18 15:30:00,
2013-01-18 10:36:00,20.1,-99.9,30.41,West,279,7.8,7.8,-999,0.00,,,-99.99,perl,2013-01-18 15:36:00,
2013-01-18 10:41:00,19.9,-99.9,30.41,SW,233,8.0,8.7,-999,0.00,,,-99.99,perl,2013-01-18 15:41:00,
2013-01-18 10:46:00,20.1,-99.9,30.41,WNW,292,6.7,7.6,-999,0.00,,,-99.99,perl,2013-01-18 15:46:00,
2013-01-18 10:51:00,20.5,-99.9,30.41,WNW,286,4.7,5.8,-999,0.00,,,-99.99,perl,2013-01-18 15:51:00,
2013-01-18 10:57:00,20.7,-99.9,30.41,West,266,7.7,8.7,-999,0.00,,,-99.99,perl,2013-01-18 15:57:00,
2013-01-18 11:02:00,20.3,-99.9,30.41,WSW,249,7.3,10.5,-999,0.00,,,-99.99,perl,2013-01-18 16:02:00,
2013-01-18 11:07:00,20.1,-99.9,30.41,WSW,250,8.4,10.5,-999,0.00,,,-99.99,perl,2013-01-18 16:07:00,
2013-01-18 11:12:00,20.1,-99.9,30.41,WSW,256,6.0,8.1,-999,0.00,,,-99.99,perl,2013-01-18 16:12:00,
2013-01-18 11:17:00,20.3,-99.9,30.41,WSW,242,5.8,6.3,-999,0.00,,,-99.99,perl,2013-01-18 16:17:00,
2013-01-18 11:22:00,20.7,-99.9,30.41,West,279,4.9,4.9,-999,0.00,,,-99.99,perl,2013-01-18 16:22:00,
2013-01-18 11:27:00,20.8,-99.9,30.41,WNW,288,6.8,6.8,-999,0.00,,,-99.99,perl,2013-01-18 16:27:00,
2013-01-18 11:32:00,21.2,-99.9,30.38,WSW,248,5.5,6.3,-999,0.00,,,-99.99,perl,2013-01-18 16:32:00,
2013-01-18 11:37:00,21.4,-99.9,30.38,WSW,248,4.1,6.3,-999,0.00,,,-99.99,perl,2013-01-18 16:37:00,
2013-01-18 11:42:00,21.0,-99.9,30.38,West,281,7.8,7.8,-999,0.00,,,-99.99,perl,2013-01-18 16:42:00,
2013-01-18 11:47:00,21.0,-99.9,30.38,West,261,7.2,11.0,-999,0.00,,,-99.99,perl,2013-01-18 16:47:00,
2013-01-18 11:52:00,20.8,-99.9,30.38,WSW,252,7.9,8.1,-999,0.00,,,-99.99,perl,2013-01-18 16:52:00,
2013-01-18 11:57:00,21.0,-99.9,30.38,WNW,283,7.5,8.3,-999,0.00,,,-99.99,perl,2013-01-18 16:57:00,
2013-01-18 12:02:00,21.2,-99.9,30.38,WNW,292,4.2,7.2,-999,0.00,,,-99.99,perl,2013-01-18 17:02:00,
2013-01-18 12:07:00,21.0,-99.9,30.38,WNW,282,6.3,8.3,-999,0.00,,,-99.99,perl,2013-01-18 17:07:00,
2013-01-18 12:12:00,21.0,-99.9,30.38,WNW,284,4.8,4.8,-999,0.00,,,-99.99,perl,2013-01-18 17:12:00,
2013-01-18 12:17:00,21.2,-99.9,30.38,West,266,4.5,6.7,-999,0.00,,,-99.99,perl,2013-01-18 17:17:00,
2013-01-18 12:22:00,21.2,-99.9,30.38,WNW,290,5.5,7.6,-999,0.00,,,-99.99,perl,2013-01-18 17:22:00,
2013-01-18 12:27:00,21.2,-99.9,30.38,WSW,258,5.7,7.6,-999,0.00,,,-99.99,perl,2013-01-18 17:27:00,
2013-01-18 12:32:00,21.6,-99.9,30.38,WSW,238,4.7,5.4,-999,0.00,,,-99.99,perl,2013-01-18 17:32:00,
2013-01-18 12:37:00,21.6,-99.9,30.38,SW,235,7.8,10.1,-999,0.00,,,-99.99,perl,2013-01-18 17:37:00,
2013-01-18 12:42:00,21.9,-99.9,30.38,SW,231,4.3,6.3,-999,0.00,,,-99.99,perl,2013-01-18 17:42:00,
2013-01-18 12:48:00,22.1,-99.9,30.38,WSW,248,7.9,7.9,-999,0.00,,,-99.99,perl,2013-01-18 17:48:00,
2013-01-18 12:54:00,22.3,-99.9,30.38,West,267,6.8,10.5,-999,0.00,,,-99.99,perl,2013-01-18 17:54:00,
2013-01-18 12:59:00,22.3,-99.9,30.38,West,272,6.7,6.7,-999,0.00,,,-99.99,perl,2013-01-18 17:59:00,
2013-01-18 13:04:00,22.1,-99.9,30.38,WSW,241,7.9,9.6,-999,0.00,,,-99.99,perl,2013-01-18 18:04:00,
2013-01-18 13:09:00,21.7,-99.9,30.38,WSW,254,6.6,6.6,-999,0.00,,,-99.99,perl,2013-01-18 18:09:00,
2013-01-18 13:14:00,21.9,-99.9,30.38,WSW,240,5.4,5.8,-999,0.00,,,-99.99,perl,2013-01-18 18:14:00,
2013-01-18 13:19:00,21.6,-99.9,30.38,WNW,283,7.7,8.3,-999,0.00,,,-99.99,perl,2013-01-18 18:19:00,
2013-01-18 13:25:00,21.2,-99.9,30.38,WSW,252,6.1,8.1,-999,0.00,,,-99.99,perl,2013-01-18 18:25:00,
2013-01-18 13:31:00,21.7,-99.9,30.35,WSW,237,5.3,5.8,-999,0.00,,,-99.99,perl,2013-01-18 18:31:00,
2013-01-18 13:36:00,22.1,-99.9,30.35,West,263,4.1,8.3,-999,0.00,,,-99.99,perl,2013-01-18 18:36:00,
2013-01-18 13:41:00,21.9,-99.9,30.35,West,265,4.3,5.8,-999,0.00,,,-99.99,perl,2013-01-18 18:41:00,
2013-01-18 13:46:00,22.1,-99.9,30.35,West,272,5.0,11.0,-999,0.00,,,-99.99,perl,2013-01-18 18:46:00,
2013-01-18 13:52:00,22.6,-99.9,30.35,WSW,250,3.2,4.0,-999,0.00,,,-99.99,perl,2013-01-18 18:52:00,
2013-01-18 13:58:00,22.5,-99.9,30.35,West,274,5.3,6.3,-999,0.00,,,-99.99,perl,2013-01-18 18:58:00,
2013-01-18 14:04:00,22.6,-99.9,30.35,West,271,6.7,6.7,-999,0.00,,,-99.99,perl,2013-01-18 19:04:00,
2013-01-18 14:10:00,22.6,-99.9,30.35,West,261,4.5,5.8,-999,0.00,,,-99.99,perl,2013-01-18 19:10:00,
2013-01-18 14:15:00,22.5,-99.9,30.35,SW,236,3.6,4.0,-999,0.00,,,-99.99,perl,2013-01-18 19:15:00,
2013-01-18 14:20:00,22.3,-99.9,30.35,West,277,2.5,4.9,-999,0.00,,,-99.99,perl,2013-01-18 19:20:00,
2013-01-18 14:26:00,22.6,-99.9,30.35,WSW,247,5.8,5.8,-999,0.00,,,-99.99,perl,2013-01-18 19:26:00,
2013-01-18 14:31:00,22.8,-99.9,30.32,WSW,244,6.0,6.3,-999,0.00,,,-99.99,perl,2013-01-18 19:31:00,
2013-01-18 14:36:00,23.0,-99.9,30.32,WSW,244,5.6,7.6,-999,0.00,,,-99.99,perl,2013-01-18 19:36:00,
2013-01-18 14:41:00,22.8,-99.9,30.32,WSW,251,6.3,11.4,-999,0.00,,,-99.99,perl,2013-01-18 19:41:00,
2013-01-18 14:47:00,23.0,-99.9,30.32,SW,221,4.1,4.9,-999,0.00,,,-99.99,perl,2013-01-18 19:47:00,
2013-01-18 14:52:00,23.5,-99.9,30.32,SW,229,4.2,6.3,-999,0.00,,,-99.99,perl,2013-01-18 19:52:00,
2013-01-18 14:58:00,23.5,-99.9,30.32,WSW,249,4.0,5.8,-999,0.00,,,-99.99,perl,2013-01-18 19:58:00,
2013-01-18 15:04:00,23.5,-99.9,30.32,SSW,203,2.9,4.9,-999,0.00,,,-99.99,perl,2013-01-18 20:04:00,
2013-01-18 15:09:00,23.4,-99.9,30.32,SW,232,3.6,4.9,-999,0.00,,,-99.99,perl,2013-01-18 20:09:00,
2013-01-18 15:14:00,23.5,-99.9,30.32,WSW,249,1.1,5.8,-999,0.00,,,-99.99,perl,2013-01-18 20:14:00,
2013-01-18 15:19:00,23.7,-99.9,30.32,SW,229,3.2,3.2,-999,0.00,,,-99.99,perl,2013-01-18 20:19:00,
2013-01-18 15:24:00,23.9,-99.9,30.32,SSW,211,2.7,4.0,-999,0.00,,,-99.99,perl,2013-01-18 20:24:00,
2013-01-18 15:29:00,23.9,-99.9,30.29,South,180,3.4,3.6,-999,0.00,,,-99.99,perl,2013-01-18 20:29:00,
2013-01-18 15:34:00,23.7,-99.9,30.29,South,191,2.5,3.1,-999,0.00,,,-99.99,perl,2013-01-18 20:34:00,
2013-01-18 15:39:00,23.5,-99.9,30.29,SSE,164,2.8,4.0,-999,0.00,,,-99.99,perl,2013-01-18 20:39:00,
2013-01-18 15:44:00,23.4,-99.9,30.29,SSE,168,0.0,0.0,-999,0.00,,,-99.99,perl,2013-01-18 20:44:00,
2013-01-18 15:49:00,23.2,-99.9,30.29,South,170,0.0,0.0,-999,0.00,,,-99.99,perl,2013-01-18 20:49:00,
2013-01-18 15:54:00,23.2,-99.9,30.29,South,169,1.7,0.0,-999,0.00,,,-99.99,perl,2013-01-18 20:54:00,
2013-01-18 15:59:00,23.2,-99.9,30.29,SSE,160,1.1,4.0,-999,0.00,,,-99.99,perl,2013-01-18 20:59:00,
2013-01-18 16:04:00,23.2,-99.9,30.29,WSW,239,0.6,4.9,-999,0.00,,,-99.99,perl,2013-01-18 21:04:00,
2013-01-18 16:09:00,23.2,-99.9,30.29,SSW,192,0.0,0.0,-999,0.00,,,-99.99,perl,2013-01-18 21:09:00,
2013-01-18 16:14:00,23.2,-99.9,30.29,SSW,197,0.0,0.0,-999,0.00,,,-99.99,perl,2013-01-18 21:14:00,
2013-01-18 16:19:00,23.4,-99.9,30.29,South,182,0.0,0.0,-999,0.00,,,-99.99,perl,2013-01-18 21:19:00,
2013-01-18 16:24:00,23.5,-99.9,30.29,SW,218,0.0,0.0,-999,0.00,,,-99.99,perl,2013-01-18 21:24:00,
2013-01-18 16:29:00,23.5,-99.9,30.26,SSW,208,0.0,0.0,-999,0.00,,,-99.99,perl,2013-01-18 21:29:00,
2013-01-18 16:35:00,23.7,-99.9,30.26,WSW,247,4.0,4.0,-999,0.00,,,-99.99,perl,2013-01-18 21:35:00,
2013-01-18 16:40:00,23.9,-99.9,30.26,SSW,201,2.7,3.6,-999,0.00,,,-99.99,perl,2013-01-18 21:40:00,
2013-01-18 16:46:00,24.1,-99.9,30.26,South,191,0.0,0.0,-999,0.00,,,-99.99,perl,2013-01-18 21:46:00,
2013-01-18 16:51:00,24.1,-99.9,30.26,SSW,209,0.0,0.0,-999,0.00,,,-99.99,perl,2013-01-18 21:51:00,
2013-01-18 16:56:00,24.1,-99.9,30.26,South,183,0.0,0.0,-999,0.00,,,-99.99,perl,2013-01-18 21:56:00,
2013-01-18 17:01:00,24.1,-99.9,30.26,SSW,204,0.0,0.0,-999,0.00,,,-99.99,perl,2013-01-18 22:01:00,
2013-01-18 17:07:00,24.1,-99.9,30.26,South,188,0.0,0.0,-999,0.00,,,-99.99,perl,2013-01-18 22:07:00,
2013-01-18 17:12:00,24.1,-99.9,30.26,South,189,0.0,0.0,-999,0.00,,,-99.99,perl,2013-01-18 22:12:00,
2013-01-18 17:17:00,24.1,-99.9,30.26,SSW,200,0.0,0.0,-999,0.00,,,-99.99,perl,2013-01-18 22:17:00,
2013-01-18 17:22:00,23.9,-99.9,30.26,South,177,0.0,0.0,-999,0.00,,,-99.99,perl,2013-01-18 22:22:00,
2013-01-18 17:27:00,23.9,-99.9,30.26,South,176,0.0,0.0,-999,0.00,,,-99.99,perl,2013-01-18 22:27:00,
2013-01-18 17:33:00,23.9,-99.9,30.23,South,187,0.0,0.0,-999,0.00,,,-99.99,perl,2013-01-18 22:33:00,
2013-01-18 17:38:00,23.9,-99.9,30.23,SSW,193,0.0,0.0,-999,0.00,,,-99.99,perl,2013-01-18 22:38:00,
2013-01-18 17:44:00,23.9,-99.9,30.26,SSW,194,0.0,0.0,-999,0.00,,,-99.99,perl,2013-01-18 22:44:00,
2013-01-18 17:50:00,23.9,-99.9,30.26,South,176,0.0,0.0,-999,0.00,,,-99.99,perl,2013-01-18 22:50:00,
2013-01-18 17:55:00,23.9,-99.9,30.26,SSE,168,0.0,0.0,-999,0.00,,,-99.99,perl,2013-01-18 22:55:00,
2013-01-18 18:00:00,23.9,-99.9,30.23,South,171,2.0,2.7,-999,0.00,,,-99.99,perl,2013-01-18 23:00:00,
2013-01-18 18:05:00,23.7,-99.9,30.23,South,178,0.0,0.0,-999,0.00,,,-99.99,perl,2013-01-18 23:05:00,
2013-01-18 18:10:00,23.7,-99.9,30.23,South,170,0.0,0.0,-999,0.00,,,-99.99,perl,2013-01-18 23:10:00,
2013-01-18 18:15:00,23.9,-99.9,30.23,SSE,161,0.0,0.0,-999,0.00,,,-99.99,perl,2013-01-18 23:15:00,
2013-01-18 18:21:00,23.9,-99.9,30.23,SSE,159,0.0,0.0,-999,0.00,,,-99.99,perl,2013-01-18 23:21:00,
2013-01-18 18:27:00,23.9,-99.9,30.23,SSE,158,0.0,0.0,-999,0.00,,,-99.99,perl,2013-01-18 23:27:00,
2013-01-18 18:32:00,23.9,-99.9,30.23,SSE,159,0.0,0.0,-999,0.00,,,-99.99,perl,2013-01-18 23:32:00,
2013-01-18 18:37:00,23.9,-99.9,30.23,SSE,158,0.0,0.0,-999,0.00,,,-99.99,perl,2013-01-18 23:37:00,
2013-01-18 18:42:00,24.1,-99.9,30.23,SSE,158,0.0,0.0,-999,0.00,,,-99.99,perl,2013-01-18 23:42:00,
2013-01-18 18:47:00,24.1,-99.9,30.23,SSE,158,0.0,0.0,-999,0.00,,,-99.99,perl,2013-01-18 23:47:00,
2013-01-18 18:52:00,24.1,-99.9,30.23,SSE,159,0.0,0.0,-999,0.00,,,-99.99,perl,2013-01-18 23:52:00,
2013-01-18 18:58:00,24.1,-99.9,30.23,SSE,159,0.0,0.0,-999,0.00,,,-99.99,perl,2013-01-18 23:58:00,
2013-01-18 19:04:00,24.1,-99.9,30.20,SSE,160,0.0,0.0,-999,0.00,,,-99.99,perl,2013-01-19 00:04:00,
2013-01-18 19:09:00,24.1,-99.9,30.20,SSE,160,0.0,0.0,-999,0.00,,,-99.99,perl,2013-01-19 00:09:00,
2013-01-18 19:14:00,24.1,-99.9,30.20,SSE,159,0.0,0.0,-999,0.00,,,-99.99,perl,2013-01-19 00:14:00,
2013-01-18 19:19:00,24.1,-99.9,30.20,SSE,159,0.0,0.0,-999,0.00,,,-99.99,perl,2013-01-19 00:19:00,
2013-01-18 19:24:00,24.1,-99.9,30.20,SSE,158,0.0,0.0,-999,0.00,,,-99.99,perl,2013-01-19 00:24:00,
2013-01-18 19:29:00,24.3,-99.9,30.20,SSE,164,0.0,0.0,-999,0.00,,,-99.99,perl,2013-01-19 00:29:00,
2013-01-18 19:34:00,24.4,-99.9,30.20,SSE,164,0.0,0.0,-999,0.00,,,-99.99,perl,2013-01-19 00:34:00,
2013-01-18 19:40:00,24.4,-99.9,30.20,SSE,153,0.0,0.0,-999,0.00,,,-99.99,perl,2013-01-19 00:40:00,
2013-01-18 19:45:00,24.4,-99.9,30.17,SSE,159,0.0,0.0,-999,0.00,,,-99.99,perl,2013-01-19 00:45:00,
2013-01-18 19:50:00,24.4,-99.9,30.17,SSE,150,0.0,0.0,-999,0.00,,,-99.99,perl,2013-01-19 00:50:00,
2013-01-18 19:55:00,24.6,-99.9,30.17,SSE,160,0.0,0.0,-999,0.00,,,-99.99,perl,2013-01-19 00:55:00,
2013-01-18 20:00:00,24.4,-99.9,30.17,SSE,159,3.4,4.0,-999,0.00,,,-99.99,perl,2013-01-19 01:00:00,
2013-01-18 20:05:00,24.4,-99.9,30.17,SSE,166,2.8,4.5,-999,0.00,,,-99.99,perl,2013-01-19 01:05:00,
2013-01-18 20:10:00,24.6,-99.9,30.17,SSE,153,4.0,4.9,-999,0.00,,,-99.99,perl,2013-01-19 01:10:00,
2013-01-18 20:15:00,25.0,-99.9,30.14,SSE,159,4.0,4.9,-999,0.00,,,-99.99,perl,2013-01-19 01:15:00,
2013-01-18 20:20:00,25.2,-99.9,30.14,SSE,159,4.7,4.9,-999,0.00,,,-99.99,perl,2013-01-19 01:20:00,
2013-01-18 20:25:00,25.5,-99.9,30.14,SSE,164,4.8,6.3,-999,0.00,,,-99.99,perl,2013-01-19 01:25:00,
2013-01-18 20:30:00,25.5,-99.9,30.14,SSE,149,4.1,5.4,-999,0.00,,,-99.99,perl,2013-01-19 01:30:00,
2013-01-18 20:36:00,25.9,-99.9,30.14,SSE,153,4.5,5.8,-999,0.00,,,-99.99,perl,2013-01-19 01:36:00,
2013-01-18 20:41:00,26.2,-99.9,30.14,South,169,4.1,6.3,-999,0.00,,,-99.99,perl,2013-01-19 01:41:00,
2013-01-18 20:46:00,26.2,-99.9,30.11,SSE,161,4.3,5.4,-999,0.00,,,-99.99,perl,2013-01-19 01:46:00,
2013-01-18 20:51:00,26.4,-99.9,30.11,South,190,3.8,5.4,-999,0.00,,,-99.99,perl,2013-01-19 01:51:00,
2013-01-18 20:56:00,26.4,-99.9,30.11,SSE,162,3.8,5.8,-999,0.00,,,-99.99,perl,2013-01-19 01:56:00,
2013-01-18 21:01:00,26.4,-99.9,30.11,SSE,163,3.9,5.8,-999,0.00,,,-99.99,perl,2013-01-19 02:01:00,
2013-01-18 21:06:00,26.2,-99.9,30.11,South,183,3.9,5.8,-999,0.00,,,-99.99,perl,2013-01-19 02:06:00,
2013-01-18 21:11:00,26.2,-99.9,30.11,SSE,168,4.5,6.3,-999,0.00,,,-99.99,perl,2013-01-19 02:11:00,
2013-01-18 21:16:00,26.1,-99.9,30.08,SSW,201,4.8,5.4,-999,0.00,,,-99.99,perl,2013-01-19 02:16:00,
2013-01-18 21:21:00,26.1,-99.9,30.08,SSW,201,3.4,4.9,-999,0.00,,,-99.99,perl,2013-01-19 02:21:00,
2013-01-18 21:27:00,26.1,-99.9,30.08,SW,217,3.8,5.4,-999,0.00,,,-99.99,perl,2013-01-19 02:27:00,
2013-01-18 21:32:00,26.1,-99.9,30.06,SSW,207,4.6,5.8,-999,0.00,,,-99.99,perl,2013-01-19 02:32:00,
2013-01-18 21:38:00,26.4,-99.9,30.06,South,177,4.3,6.3,-999,0.00,,,-99.99,perl,2013-01-19 02:38:00,
2013-01-18 21:43:00,26.6,-99.9,30.06,SSW,197,3.3,5.4,-999,0.00,,,-99.99,perl,2013-01-19 02:43:00,
2013-01-18 21:48:00,26.8,-99.9,30.06,SSE,168,3.5,4.9,-999,0.00,,,-99.99,perl,2013-01-19 02:48:00,
2013-01-18 21:55:00,27.0,-99.9,30.06,South,177,4.4,5.8,-999,0.00,,,-99.99,perl,2013-01-19 02:55:00,
2013-01-18 22:00:00,27.0,-99.9,30.06,SSW,196,4.3,4.9,-999,0.00,,,-99.99,perl,2013-01-19 03:00:00,
2013-01-18 22:05:00,27.3,-99.9,30.06,SSW,207,5.5,8.1,-999,0.00,,,-99.99,perl,2013-01-19 03:05:00,
2013-01-18 22:10:00,27.5,-99.9,30.06,South,188,3.0,6.3,-999,0.00,,,-99.99,perl,2013-01-19 03:10:00,
2013-01-18 22:15:00,27.7,-99.9,30.03,South,189,4.1,5.4,-999,0.00,,,-99.99,perl,2013-01-19 03:15:00,
2013-01-18 22:20:00,27.9,-99.9,30.03,SW,235,4.0,7.2,-999,0.00,,,-99.99,perl,2013-01-19 03:20:00,
2013-01-18 22:25:00,28.2,-99.9,30.03,South,181,4.5,6.3,-999,0.00,,,-99.99,perl,2013-01-19 03:25:00,
2013-01-18 22:30:00,28.4,-99.9,30.03,SSW,211,4.4,5.8,-999,0.00,,,-99.99,perl,2013-01-19 03:30:00,
2013-01-18 22:35:00,28.6,-99.9,30.03,SSW,205,3.9,4.0,-999,0.00,,,-99.99,perl,2013-01-19 03:35:00,
2013-01-18 22:40:00,28.8,-99.9,30.03,South,182,4.4,5.4,-999,0.00,,,-99.99,perl,2013-01-19 03:40:00,
2013-01-18 22:45:00,28.9,-99.9,30.03,SW,234,4.6,7.6,-999,0.00,,,-99.99,perl,2013-01-19 03:45:00,
2013-01-18 22:50:00,29.1,-99.9,30.03,SSW,205,4.3,4.3,-999,0.00,,,-99.99,perl,2013-01-19 03:50:00,
2013-01-18 22:55:00,29.1,-99.9,30.03,SW,217,0.0,0.0,-999,0.00,,,-99.99,perl,2013-01-19 03:55:00,
2013-01-18 23:00:00,29.3,-99.9,30.06,SW,230,3.8,5.8,-999,0.00,,,-99.99,perl,2013-01-19 04:00:00,
2013-01-18 23:05:00,29.5,-99.9,30.06,SSW,192,3.8,4.0,-999,0.00,,,-99.99,perl,2013-01-19 04:05:00,
2013-01-18 23:10:00,29.5,-99.9,30.06,SSW,210,2.2,5.4,-999,0.00,,,-99.99,perl,2013-01-19 04:10:00,
2013-01-18 23:15:00,29.5,-99.9,30.03,SSW,212,0.0,0.0,-999,0.00,,,-99.99,perl,2013-01-19 04:15:00,
2013-01-18 23:20:00,29.5,-99.9,30.03,SSW,213,0.0,0.0,-999,0.00,,,-99.99,perl,2013-01-19 04:20:00,
2013-01-18 23:25:00,29.5,-99.9,30.03,SW,221,0.0,0.0,-999,0.00,,,-99.99,perl,2013-01-19 04:25:00,
2013-01-18 23:30:00,29.7,-99.9,30.03,South,183,0.0,0.0,-999,0.00,,,-99.99,perl,2013-01-19 04:30:00,
2013-01-18 23:35:00,29.8,-99.9,30.03,SW,215,2.5,4.0,-999,0.00,,,-99.99,perl,2013-01-19 04:35:00,
2013-01-18 23:40:00,30.2,-99.9,30.03,SSW,200,3.5,4.9,-999,0.00,,,-99.99,perl,2013-01-19 04:40:00,
2013-01-18 23:46:00,30.6,-99.9,30.00,South,172,3.6,5.8,-999,0.00,,,-99.99,perl,2013-01-19 04:46:00,
2013-01-18 23:51:00,30.7,-99.9,30.00,SW,231,2.8,4.5,-999,0.00,,,-99.99,perl,2013-01-19 04:51:00,
2013-01-18 23:56:00,30.7,-99.9,30.00,South,169,2.5,4.9,-999,0.00,,,-99.99,perl,2013-01-19 04:56:00,